Tracking 29892 objects as of 21-Nov-2024
HD Live streaming from Space Station
objects crossing your sky now

GLOBALSTAR M049

Track GLOBALSTAR M049 now!
10-day predictions
GLOBALSTAR M049 is classified as:


NORAD ID: 25771
Int'l Code: 1999-031B
Perigee: 2,104.1 km
Apogee: 2,110.3 km
Inclination: 52.0 °
Period: 129.5 minutes
Semi major axis: 8478 km
RCS: 2.3329 m2 (large)
Launch date: June 10, 1999
Source: Globalstar (GLOB)
Launch site: AIR FORCE EASTERN TEST RANGE (AFETR)
Your satellite tracking list
Your tracking list is empty




NASA's NSSDC Master Catalog

Two Line Element Set (TLE):
1 25771U 99031B   24325.91281905 -.00000075  00000-0 -33929-3 0  9998
2 25771  51.9887 306.0500 0003640  27.2739 332.8248 11.12114869 94253
Source of the keplerian elements: AFSPC